Portada
METAR-TAF:

METAR-TAF

Aeroports :

Pipestone Municipal Airport

Pipestone, Minnesota, Estats Units d'Amèrica

latitud: 43-59N, longitud: 096-19W, altitud: 529 m

Observació

L'informe es va fer fa 10 minuts, a les 21:35 UTC
Vent 6 kt del Oest
Temperatura 4°C
Humitat 81%
Pressió 1011 hPa
Visibilitat: 16.1 km
Cel clar

METAR: KPQN 222135Z AUTO 27006KT 10SM CLR 04/01 A2984 RMK AO2

Hora: 15:45 (21:45 UTC)


TAF: manca

Observacions i pronòstics meteorològics de més de 4000 aeroports (METAR i TAF).

Les estacions disponibles són els punts grocs i vermells al mapa.

Posi el ratolí al punt desitjat per veure el nom de l'estació.

Feu clic per veure les observacions i els pronòstics meteorològics.

Per canviar el mapa: feu clic els botons verds amb una creu de color negre per apropar; al botó verd amb un guió per allunyar la imatge; o en les fletxes verdes per a mapes adjacents.


METAR-TAF: